Regional Weather Roundup
Issued by NWS

Home | Current Version | Previous Version | Text Only | Print | Product List | Glossary Off
Versions: 1 2 3 4 5 6 7 8 9 10 11 12 13 14 15 16 17 18 19 20 21 22 23 24 25 26 27 28 29 30 31 32 33 34 35 36 37 38 39 40 41 42 43 44 45 46 47 48 49 50

000
ASUS43 KIND 262209
RWRIN

WEATHER ROUNDUP FOR INDIANA
NATIONAL WEATHER SERVICE INDIANAPOLIS IN
600 PM EDT MON SEP 26 2016

NOTE: "FAIR" INDICATES FEW OR NO CLOUDS BELOW 12,000 FEET WITH NO
SIGNIFICANT WEATHER AND/OR OBSTRUCTIONS TO VISIBILITY.

* - STATION DOES NOT REPORT WEATHER SUCH AS PRECIPITATION OR FOG.

+ - STATION NOT QUALITY CONTROLLED BY THE NATIONAL WEATHER SERVICE.
    USE DATA WITH CAUTION...ESPECIALLY DEWPOINT AND RELATIVE
    HUMIDITY OBSERVATIONS.

INZ001>003-010>013-019-020-262300-
NORTHWEST INDIANA

CITY           SKY/WX    TMP DP  RH WIND       PRES   REMARKS
GARY /AIRPORT/ SUNNY     72  30  21 W32       29.94S
KNOX *+        SUNNY    N/A N/A N/A W16G25    29.94F
LA PORTE +     SUNNY     70  35  28 W14G22    29.94S
MICHIGAN CITY+ SUNNY     68  39  34 MISG      29.94S
MONTICELLO +   SUNNY     71  20  14 W16G25    29.96F
RENSSELAER +   SUNNY     72  27  18 W16G28    29.96F
VALPARAISO     SUNNY     69  37  30 W13G25    29.94F

$$

LMZ046-743>745-262300-
SOUTHERN LAKE MICHIGAN

STATION/POSITION TIME  TEMP    WIND        PRES    WAVE
                       AIR SEA DIR/SP/G            HT
                 (UTC) (F)     (DEG/KT/KT) (MB)    (FT)
BURNS HARBOR     2102   68     260/ 20     1013.9F
MICHIGAN CITY    2100   67     240/ 24/ 25   N/A
5NW MICH CITY    2200   68 66  270/ 19/ 23   N/A     5

$$

INZ004-005-014>016-021>024-262300-
NORTH CENTRAL INDIANA

CITY           SKY/WX    TMP DP  RH WIND       PRES   REMARKS
ELKHART        SUNNY    N/A N/A N/A W12       29.92S
GOSHEN         SUNNY     67  36  31 W16G25    29.93S
LOGANSPORT +   SUNNY     70  36  28 W20G29    29.97F
PERU/GRISSOM   SUNNY     70  36  28 W17G25    29.95F
ROCHESTER +    SUNNY     72  34  25 W13G24    29.95S
SOUTH BEND     SUNNY     67  38  34 W16       29.93S
WARSAW +       SUNNY     68  28  22 W14G20    29.94S

$$

INZ006>009-017-018-025>027-262300-
NORTHEAST INDIANA

CITY           SKY/WX    TMP DP  RH WIND       PRES   REMARKS
ANGOLA *+        N/A     68  61  77 W12       29.92S
AUBURN +       SUNNY     68  34  28 W12G18    29.94F
FORT WAYNE     MOSUNNY   70  35  27 SW13G23   29.94F
HUNTINGTON +   SUNNY    N/A N/A N/A W13       29.95F
KENDALLVILLE + SUNNY     67  37  32 W14G26    29.93F

$$

INZ028-029-035-036-043>045-051>053-262300-
WEST CENTRAL INDIANA

CITY           SKY/WX    TMP DP  RH WIND       PRES   REMARKS
CRAWFORDSVL +  SUNNY     69  37  31 W10       30.01F
GREENCASTLE +  SUNNY     70  45  40 W5        30.03S
LAFAYETTE      SUNNY     70  38  31 W14G20    29.98F
TERRE HAUTE    SUNNY     73  34  23 W14       30.03F

$$

INZ030>032-037>040-046>048-054>057-064-065-262300-
CENTRAL INDIANA

CITY           SKY/WX    TMP DP  RH WIND       PRES   REMARKS
COLUMBUS       SUNNY     66  50  55 W12       30.04F
FISHERS *+     SUNNY     68  46  45 W12G17    30.01
FRANKFORT +    CLOUDY    73  37  26 W12G18    30.01S
GREENWOOD *+   SUNNY     70  43  37 W12G18    30.03S
INDIANAPOLIS   MOSUNNY   70  41  34 W16       30.01F
-EAGLE CREEK   SUNNY     71  39  31 W7        30.00F
MARION +       SUNNY     70  37  29 W14G20    29.98F
MT COMFORT *+  SUNNY     68  43  40 W12G17    30.02S
SHELBYVILLE    SUNNY     70  42  36 W12G21    30.01F
ZIONSVILLE +   SUNNY     68  40  35 W12G21    30.01F

$$

INZ033-034-041-042-049-050-058-059-262300-
EAST CENTRAL INDIANA

CITY           SKY/WX    TMP DP  RH WIND       PRES   REMARKS
MUNCIE         SUNNY     71  40  32 W12G18    29.98F

$$

INZ060-061-067>069-081>083-085>088-262300-
SOUTHWEST INDIANA

CITY           SKY/WX    TMP DP  RH WIND       PRES   REMARKS
EVANSVILLE     SUNNY     73  48  41 NW9       30.07F
HUNTINGBURG *+   N/A     72  48  43 W10       30.06F
WASHINGTON +   SUNNY     71  47  43 MISG      30.05S

$$

INZ062-063-066-070>080-084-089>092-262300-
SOUTH CENTRAL AND SOUTHEAST INDIANA

CITY           SKY/WX    TMP DP  RH WIND       PRES   REMARKS
BLOOMINGTON    SUNNY     70  43  37 W7        30.04F
MADISON *+     PTSUNNY   68  46  45 W5        30.06F
NORTH VERNON + MOSUNNY   68  57  68 W7        30.05S
SEYMOUR +      CLOUDY    72  50  46 W13       30.04F

$$




USA.gov is the U.S. government's official web portal to all federal, state and local government web resources and services.